Simultaneous Nadir Overpasses (SNOs) Predictions

Prediction of SNOs between AQUA and METOP-A Satellite Orbit:

Table of predicted SNOs for the next 14.0 days since TLE Epoch: 3/23/2018
Index Date (AQUA) Time (AQUA) Lat,Lon (AQUA) SZA (AQUA ) Date (METOP-A) Time (METOP-A) Lat,Lon (METOP-A) SZA (METOP-A ) Distance(km) Time Diff (sec)
1 03/25/2018 22:07:19 74.28,-158.42 72.29 03/25/2018 22:06:51 74.26,-158.38 72.26 3.39 28
2 03/25/2018 22:56:46 -74.32, 9.13 107.69 03/25/2018 22:57:31 -74.35, 9.17 107.67 2.77 45
3 03/28/2018 17:41:33 74.29, -91.99 71.18 03/28/2018 17:41:08 74.28, -91.93 71.17 2.11 25
4 03/28/2018 18:31:00 -74.33, 75.56 108.80 03/28/2018 18:31:49 -74.32, 75.52 108.80 1.47 49
5 03/31/2018 12:26:07 -73.56, 168.44 110.69 03/31/2018 12:25:02 -73.53, 165.36 110.58 97.13 65
6 03/31/2018 13:15:48 74.29, -25.56 70.09 03/31/2018 13:15:26 74.29, -25.48 70.09 2.65 22
7 03/31/2018 14:05:15 -74.33, 141.98 109.89 03/31/2018 14:06:07 -74.35, 141.98 109.88 1.32 52
8 04/03/2018 08:00:25 -73.73,-125.49 111.60 04/03/2018 07:59:18 -73.65,-127.96 111.57 77.73 67
9 04/03/2018 08:50:02 74.26, 40.96 68.96 04/03/2018 08:49:45 74.26, 40.84 68.97 3.59 17
10 04/03/2018 09:39:30 -74.35,-151.61 110.96 04/03/2018 09:40:25 -74.37,-151.56 110.95 2.42 55
11 04/06/2018 03:34:41 -73.86, -59.33 112.54 04/06/2018 03:33:32 -73.82, -61.16 112.50 57.10 69
12 04/06/2018 04:24:16 74.28, 107.35 67.90 04/06/2018 04:24:02 74.28, 107.29 67.90 2.11 14
13 04/06/2018 05:13:44 -74.37, -85.22 112.02 04/06/2018 05:14:42 -74.38, -85.11 112.01 3.67 58




NCC Satellite Simultaneous Nadir Overpasses (SNOs) Prediction Service
